Change the Weather History Date:

Thursday, January 17, 2013

  Actual Average (KCOF) Record (KCOF)
Temperature  
Mean Temperature 69 °F -  
Max Temperature 82 °F 68 °F 82 °F (2013)
Min Temperature 55 °F 52 °F 39 °F (1997)
Cooling Degree Days 4    
Growing Degree Days 19 (Base 50)    
Moisture  
Dew Point 61 °F    
Average Humidity 76    
Maximum Humidity 93    
Minimum Humidity 52    
Precipitation  
Precipitation 0.00 in - - ()
Sea Level Pressure  
Sea Level Pressure 30.01 in    
Wind  
Wind Speed 11 mph (WSW)    
Max Wind Speed 24 mph    
Max Gust Speed 33 mph    
Visibility 10 miles    
Events      
Averages and records for this station are not official NWS values.
T = Trace of Precipitation, MM = Missing Value Source: NWS Daily Summary

Daily Weather History Graph

Daily Weather History Graph

Search for Another Location

Airport or City:

Trip Planner

Search our weather history database for the weather conditions in past years. The results will help you decide how hot, cold, wet, or windy it might be!

Date:

Astronomy

Jan. 17, 2013 Rise Set
Actual Time 7:15 AM EST 5:49 PM EST
Civil Twilight 6:50 AM EST 6:15 PM EST
Nautical Twilight 6:21 AM EST 6:43 PM EST
Astronomical Twilight 5:52 AM EST 7:12 PM EST
Moon 10:57 AM EST (1/17) No Moon Set
Length of Visible Light 11h 24m
Length of Day
10h 34m
Waxing Crescent, 37% of the Moon is Illuminated
Jan 17
Waxing Crescent
Jan 18
First Quarter
Jan 26
Full
Feb 3
Last Quarter
Feb 10
New

Hourly Weather History & Observations

Time (EST) Temp. Heat Index Dew Point Humidity Pressure Visibility Wind Dir Wind Speed Gust Speed Precip Events Conditions
12:55 AM 70.7 °F - 68.0 °F 91% 30.04 in 10.0 mi South 8.1 mph - N/A   Clear
1:55 AM 70.0 °F - 67.6 °F 92% 30.04 in 10.0 mi South 8.1 mph - N/A   Clear
2:55 AM 70.2 °F - 67.8 °F 92% 30.03 in 10.0 mi South 9.2 mph - N/A   Clear
3:55 AM 69.4 °F - 66.6 °F 91% 30.02 in 10.0 mi SSW 5.8 mph - N/A   Clear
4:55 AM 67.8 °F - 64.8 °F 90% 30.03 in 10.0 mi SSW 4.6 mph - N/A   Partly Cloudy
5:55 AM 66.9 °F - 63.9 °F 90% 30.03 in 10.0 mi WSW 4.6 mph - N/A   Clear
6:55 AM 67.5 °F - 64.6 °F 90% 30.04 in 10.0 mi SW 3.5 mph - N/A   Clear
7:55 AM 66.2 °F - 64.2 °F 93% 30.05 in 10.0 mi WSW 4.6 mph - N/A   Clear
8:55 AM 69.4 °F - 65.5 °F 87% 30.06 in 10.0 mi SSW 5.8 mph - N/A   Clear
9:55 AM 74.7 °F - 66.6 °F 76% 30.06 in 10.0 mi South 9.2 mph - N/A   Clear
10:55 AM 76.8 °F - 68.2 °F 75% 30.04 in 10.0 mi South 12.7 mph - N/A   Clear
11:24 AM 77.0 °F - 68.0 °F 74% 30.02 in 10.0 mi South 11.5 mph - N/A   Mostly Cloudy
11:46 AM 78.8 °F - 66.2 °F 65% 30.01 in 10.0 mi SSW 15.0 mph - N/A   Scattered Clouds
11:55 AM 79.3 °F - 66.6 °F 65% 30.01 in 10.0 mi South 13.8 mph - N/A   Partly Cloudy
12:55 PM 81.1 °F 83.2 °F 66.2 °F 60% 29.97 in 10.0 mi SW 16.1 mph - N/A   Partly Cloudy
1:55 PM 82.4 °F 83.5 °F 63.3 °F 52% 29.92 in 10.0 mi SSW 13.8 mph 26.5 mph N/A   Clear
2:39 PM 78.8 °F - 66.2 °F 65% 29.92 in 10.0 mi West 17.3 mph 25.3 mph N/A   Mostly Cloudy
2:55 PM 77.0 °F - 65.5 °F 67% 29.92 in 10.0 mi West 12.7 mph - N/A   Mostly Cloudy
3:14 PM 75.2 °F - 64.4 °F 69% 29.94 in 10.0 mi West 17.3 mph 24.2 mph N/A   Light Drizzle
3:27 PM 73.4 °F - 64.4 °F 73% 29.94 in 10.0 mi West 17.3 mph 26.5 mph N/A   Overcast
3:55 PM 72.5 °F - 62.8 °F 71% 29.96 in 10.0 mi West 19.6 mph 25.3 mph 0.00 in   Mostly Cloudy
4:10 PM 69.8 °F - 62.6 °F 78% 29.97 in 10.0 mi WNW 21.9 mph 29.9 mph N/A   Overcast
4:55 PM 63.9 °F - 56.3 °F 76% 30.00 in 10.0 mi West 24.2 mph 33.4 mph N/A   Overcast
5:32 PM 62.6 °F - 53.6 °F 72% 30.01 in 10.0 mi West 20.7 mph 27.6 mph N/A   Scattered Clouds
5:55 PM 62.4 °F - 53.2 °F 72% 30.02 in 10.0 mi West 21.9 mph 27.6 mph N/A   Partly Cloudy
6:55 PM 61.2 °F - 51.8 °F 71% 30.04 in 10.0 mi West 19.6 mph 25.3 mph N/A   Mostly Cloudy
7:55 PM 60.4 °F - 48.6 °F 65% 30.06 in 10.0 mi West 20.7 mph 26.5 mph N/A   Partly Cloudy
8:55 PM 59.7 °F - 47.5 °F 64% 30.07 in 10.0 mi West 20.7 mph 29.9 mph N/A   Scattered Clouds
9:55 PM 57.7 °F - 47.5 °F 69% 30.07 in 10.0 mi West 19.6 mph 26.5 mph N/A   Clear
10:55 PM 56.5 °F - 47.8 °F 73% 30.08 in 10.0 mi West 15.0 mph 21.9 mph N/A   Clear
11:55 PM 55.2 °F - 46.8 °F 73% 30.09 in 10.0 mi WNW 16.1 mph - N/A   Clear